GFSCGP_850_temp_234.txt.gz
Temp
22 20 20 21 21 24 23 23 23 21 20 20 18 19 17 18 18 19 20 21 21 21 22 21 21 21 21 21 21 21 20 20 20 20 20 19 19 20 20 20 20 20 20 20
20 19 20 22 22 23 23 24 23 20 20 20 19 19 19 18 18 19 20 21 21 22 22 22 21 21 21 21 21 21 21 20 20 20 20 20 20 20 20 19 20 20 20 20
19 21 22 23 23 23 23 22 23 23 20 20 19 19 19 19 19 19 20 21 22 22 22 22 22 22 22 21 21 21 21 20 20 20 20 20 20 20 20 19 20 20 20 20
20 22 23 22 23 23 22 23 24 20 20 20 21 20 18 19 19 19 20 22 22 22 23 23 22 22 22 22 22 21 21 21 20 20 20 20 21 20 20 20 20 20 20 20
20 20 21 22 22 23 23 24 24 22 19 20 20 19 20 19 19 20 20 21 23 23 23 23 23 23 23 22 22 21 21 21 21 20 20 20 20 21 21 20 20 20 20 20
20 22 21 21 23 23 24 25 20 17 17 18 20 20 21 18 22 21 21 21 22 23 23 24 24 24 23 23 22 21 22 21 21 21 20 20 21 21 21 20 20 20 20 20
20 21 22 23 22 23 22 21 19 19 18 18 19 19 22 23 22 23 22 21 22 23 22 23 23 23 23 23 22 22 22 21 21 21 20 20 21 21 21 21 21 21 21 20
16 18 20 22 21 20 19 20 17 20 18 20 18 20 23 22 24 25 26 24 22 23 23 24 24 24 23 23 23 22 22 22 21 21 21 21 21 21 21 21 21 21 21 21
15 17 19 21 21 21 20 19 19 18 17 18 19 20 22 23 23 23 24 23 22 23 24 24 23 24 24 24 23 23 23 22 22 21 21 21 21 21 21 21 21 21 21 21
16 18 19 21 22 21 20 19 19 15 18 19 19 21 21 23 23 22 22 22 22 23 23 23 23 23 23 24 24 23 24 23 23 22 21 21 21 21 21 21 21 21 21 21
15 16 19 20 19 19 18 19 16 16 16 17 19 19 19 22 22 21 21 23 23 23 23 23 23 23 23 23 24 24 23 23 22 22 21 21 21 21 21 21 21 21 21 21
16 12 15 18 18 18 18 18 18 16 18 15 17 19 22 20 20 21 21 24 25 25 25 24 23 23 24 23 23 24 24 23 23 23 22 22 21 21 21 21 21 21 21 21
16 12 14 16 16 18 20 18 16 14 14 16 18 19 19 18 18 19 20 20 24 25 24 23 23 23 24 24 24 23 23 24 23 23 22 22 21 21 21 21 21 21 21 21
14 10 13 14 16 16 19 19 17 16 15 17 17 21 21 20 19 17 18 19 20 22 22 23 23 23 24 24 24 24 23 23 23 23 23 22 22 22 22 21 21 21 21 21
10 15 13 14 15 18 17 17 17 18 17 19 20 18 20 18 18 16 17 18 19 19 20 21 22 22 23 23 24 24 23 22 22 22 22 22 22 22 21 22 21 21 21 21
7 14 15 18 18 17 14 15 15 15 15 17 19 19 16 17 16 16 15 15 16 16 17 20 21 22 22 22 22 23 23 23 22 22 22 21 21 21 21 21 21 21 21 21
7 9 11 16 16 16 16 15 15 16 16 16 17 17 16 17 15 14 13 13 14 15 16 17 18 19 20 20 21 21 21 21 21 21 22 22 21 21 21 21 21 21 22 22
7 9 9 12 15 16 14 16 15 15 15 15 16 15 15 14 13 12 12 12 12 13 14 15 16 16 18 18 19 20 20 20 20 20 20 21 21 20 21 21 22 22 22 22
7 8 10 12 11 13 15 15 14 14 14 14 14 14 14 13 13 12 12 12 12 12 13 13 14 15 16 18 19 18 18 19 19 20 20 21 21 21 21 21 22 22 22 22
4 4 7 9 13 13 12 12 12 12 14 13 14 13 13 14 14 13 11 11 12 12 13 13 13 15 16 17 17 17 17 19 18 18 20 20 20 21 21 21 21 21 21 22
7 6 8 9 11 11 10 9 12 13 13 12 12 12 12 12 12 11 12 11 11 11 12 12 12 13 13 14 15 16 18 18 18 18 18 18 18 19 20 20 21 21 22 22
7 8 9 8 10 12 9 11 12 12 12 12 12 12 11 11 11 11 11 11 12 12 11 11 12 12 12 12 14 15 17 16 17 18 18 19 19 19 19 18 19 21 21 21
8 8 9 9 9 8 8 7 7 10 10 11 12 11 12 11 11 11 11 11 11 12 12 13 12 12 12 12 13 13 12 15 15 16 17 18 18 18 19 19 20 20 21 21
8 8 9 8 9 8 7 8 9 9 9 10 11 12 12 12 12 12 12 12 11 11 12 12 12 12 12 12 12 13 13 13 15 15 16 17 18 18 18 18 19 19 19 19
6 7 8 7 7 8 7 7 8 8 10 10 11 10 10 11 12 12 12 12 12 12 12 12 13 13 12 12 14 14 13 13 13 14 15 16 17 18 18 18 18 18 19 19
5 6 7 6 7 6 7 6 9 9 9 9 10 11 11 10 11 11 12 12 12 12 12 12 11 13 13 12 12 13 13 13 13 13 13 14 15 17 17 18 18 17 17 18

GFSCGP_850_temp_240.txt.gz
Temp
26 28 28 30 30 31 30 30 30 29 28 28 28 28 29 25 25 25 25 24 24 24 23 22 21 21 21 20 19 18 18 18 18 18 18 20 20 20 20 20 19 20 19 20
28 27 30 30 30 30 30 30 30 29 28 28 29 29 29 28 26 26 26 25 24 24 24 23 22 21 21 20 19 19 18 19 19 19 19 20 21 21 21 20 19 19 19 20
28 29 30 30 30 29 30 30 30 30 28 29 28 29 29 29 27 25 26 26 25 25 24 23 22 22 21 21 20 19 19 19 19 19 19 19 19 20 20 20 20 20 20 20
28 30 29 29 29 29 29 31 30 29 29 30 29 30 30 29 28 27 26 26 26 25 25 24 23 22 21 21 20 20 19 19 20 20 19 20 20 21 21 21 21 20 19 19
27 29 28 28 29 30 29 32 30 30 30 30 30 29 32 30 28 28 27 26 26 26 25 24 23 22 22 22 21 20 20 19 19 20 20 19 20 21 21 21 20 20 19 19
28 28 29 29 30 30 30 29 29 29 30 29 31 30 32 32 31 30 28 27 27 26 26 25 24 23 23 22 21 21 20 21 20 20 21 20 20 21 21 21 20 20 21 20
26 28 28 28 29 30 29 29 27 27 28 28 31 29 31 32 32 31 30 28 27 26 26 25 25 24 23 23 22 21 20 21 21 20 20 21 19 20 20 20 20 21 21 21
26 26 27 28 29 28 28 29 28 26 28 30 31 28 31 32 32 32 31 29 28 27 26 26 25 25 24 23 22 22 20 22 21 20 20 20 20 20 20 20 21 21 21 21
27 26 28 28 29 29 28 28 31 30 31 30 31 31 32 32 33 32 31 30 29 28 27 26 26 25 24 24 23 22 21 23 22 21 21 20 21 20 20 20 21 21 20 21
26 25 27 28 28 28 29 30 28 29 27 27 29 30 31 32 32 32 32 31 30 29 28 27 26 26 25 24 23 22 22 23 23 21 21 21 20 21 21 20 20 20 20 21
26 25 27 27 26 27 27 27 28 30 29 28 28 30 33 32 32 31 31 31 30 29 29 28 27 26 25 24 24 23 22 23 22 21 20 20 20 19 21 20 21 20 21 21
25 25 25 25 27 28 29 28 29 28 27 29 30 31 33 31 31 30 31 28 29 29 29 28 27 26 24 24 24 23 22 21 23 23 22 21 20 19 19 21 20 21 21 21
23 24 24 25 26 26 26 28 29 29 29 28 28 30 32 31 29 28 28 27 26 28 28 28 27 26 25 24 23 23 22 22 21 23 23 21 20 20 20 20 20 20 21 21
17 23 24 25 25 27 25 26 28 29 28 28 29 29 32 31 31 27 27 25 25 25 26 27 26 25 24 23 22 22 22 21 21 20 20 22 20 20 20 20 19 21 21 21
20 21 24 25 26 27 27 26 27 27 28 28 29 29 31 31 30 25 24 23 23 24 25 26 25 24 23 22 21 20 21 20 21 20 20 21 23 22 20 20 20 19 21 22
20 20 21 23 25 25 25 27 27 27 27 28 29 29 30 27 25 23 21 22 21 20 17 17 20 22 22 21 21 20 20 20 19 19 19 20 22 23 23 22 22 22 22 22
17 19 21 22 24 24 24 26 26 27 27 28 27 28 29 23 19 17 17 16 15 14 14 15 15 16 18 20 19 19 19 19 19 18 18 19 19 20 22 23 23 23 23 22
15 16 19 22 23 21 24 24 25 26 25 24 24 20 20 15 12 12 12 13 12 13 13 14 15 15 16 18 17 18 18 18 19 18 19 18 18 18 20 20 19 20 21 21
16 16 19 21 22 21 20 21 22 23 21 18 21 17 14 15 14 12 12 12 12 12 13 14 14 15 15 16 17 17 17 17 17 17 18 18 18 18 19 19 20 20 20 21
15 16 17 21 20 21 22 19 17 19 21 19 18 18 15 15 19 13 11 12 12 12 12 13 14 14 15 16 16 16 16 17 17 17 19 19 17 18 17 17 20 18 20 21
14 14 17 19 20 18 17 17 17 19 19 18 17 16 17 17 16 11 11 12 12 12 12 12 13 14 14 14 15 16 16 16 16 17 17 18 17 17 17 19 19 18 20 19
17 17 17 19 20 18 12 16 17 11 16 14 14 15 13 12 11 11 11 11 11 11 11 11 12 12 12 13 13 14 15 14 14 15 16 16 16 18 16 18 18 19 20 18
14 14 16 15 15 10 7 8 7 10 13 13 12 12 12 11 11 11 11 11 11 11 11 12 12 11 11 12 12 14 15 16 15 13 14 15 16 17 16 16 17 18 19 18
12 11 13 14 9 8 7 6 7 9 12 13 13 11 11 11 11 11 11 11 11 12 12 12 12 12 12 13 13 13 14 14 15 13 13 14 14 15 17 16 15 16 17 18
9 10 12 9 8 7 6 6 6 7 10 11 12 12 12 12 11 11 10 10 11 11 11 12 12 12 14 13 13 13 14 13 13 14 14 13 14 14 16 17 17 18 16 17
9 8 10 12 9 9 7 5 6 6 8 10 11 12 11 12 12 12 12 11 11 11 12 12 11 11 13 13 14 15 14 14 14 13 13 15 14 15 14 14 14 16 16 14

GFSCGP_850_temp_243.txt.gz
Temp
28 29 30 31 33 33 33 33 33 33 32 31 31 31 29 29 28 26 27 27 26 26 25 24 24 23 22 21 20 20 20 19 19 20 20 21 21 22 21 21 20 20 19 19
30 29 31 32 33 33 30 32 33 32 32 31 32 32 32 31 29 27 26 27 27 27 26 25 24 23 23 22 21 20 20 19 19 20 21 22 22 22 22 20 20 20 20 19
29 31 32 32 32 32 32 32 33 32 31 32 32 32 33 32 30 28 27 27 27 27 27 25 24 23 23 22 21 20 20 19 20 21 21 21 21 22 22 21 21 20 20 19
30 31 31 31 31 32 32 34 33 31 32 31 33 31 32 33 31 30 29 27 27 27 27 26 24 24 23 23 21 20 20 19 19 20 21 21 21 23 23 22 22 20 20 20
29 31 31 31 31 32 32 33 33 33 32 33 32 32 33 33 31 31 30 28 27 28 27 26 25 24 24 23 22 21 20 19 20 20 21 20 22 23 23 23 22 22 20 20
30 31 32 32 32 32 33 33 32 31 33 31 33 33 34 34 33 32 31 30 29 29 28 27 26 25 24 24 23 22 20 19 19 19 20 20 22 23 23 23 22 22 21 20
29 30 32 32 31 32 32 32 30 29 30 30 34 33 34 34 34 34 33 30 30 29 28 27 26 25 24 24 23 22 21 19 19 19 19 20 21 21 22 22 22 23 23 23
27 28 30 32 31 31 31 32 31 28 30 32 34 31 33 35 35 34 33 31 30 30 29 28 27 26 25 24 24 23 22 20 19 20 19 19 20 21 21 21 23 23 24 23
28 28 31 31 31 31 31 30 32 32 33 33 34 34 35 34 34 34 33 32 31 30 30 29 28 27 26 25 24 24 23 21 20 20 19 20 19 20 21 22 22 22 22 23
28 27 31 31 31 31 31 32 30 31 29 30 33 32 33 33 33 34 34 33 32 31 30 29 29 27 26 25 25 24 23 21 21 21 20 20 20 20 20 21 21 22 22 21
27 27 28 31 29 29 30 30 31 32 32 30 31 33 35 34 34 34 34 33 33 32 31 30 29 29 27 26 26 25 24 23 21 21 20 20 20 20 20 20 20 20 21 21
26 27 27 29 31 31 31 30 31 30 29 31 32 33 36 35 34 33 33 32 32 32 31 30 30 29 28 27 26 26 25 24 22 21 21 20 20 20 20 20 20 20 20 20
23 25 25 27 30 30 28 30 31 31 31 30 30 32 35 34 33 32 31 30 30 32 32 31 30 29 29 27 27 26 25 24 22 21 21 21 20 20 20 20 20 20 20 20
19 24 25 26 27 29 27 28 30 30 30 30 31 32 33 33 32 31 29 28 29 30 31 31 30 29 28 27 26 25 25 24 23 22 21 21 21 21 21 20 20 20 20 20
23 22 24 26 28 29 29 28 28 29 30 30 31 32 33 33 31 28 28 27 27 28 29 28 29 28 27 26 25 25 25 24 23 22 21 21 21 21 21 21 20 20 20 20
22 21 23 24 26 27 27 29 29 29 29 30 31 31 34 31 28 26 25 25 22 19 19 20 22 26 26 25 24 24 23 23 23 22 21 21 21 21 20 21 20 20 20 20
19 20 22 22 25 26 25 27 29 29 30 30 29 31 32 26 21 20 20 18 16 15 15 16 17 17 18 21 23 23 22 21 21 21 21 21 20 20 20 20 20 20 20 20
19 19 21 22 24 23 27 29 29 29 29 30 30 27 21 19 16 15 15 15 13 13 14 14 17 17 18 18 18 21 21 20 20 20 20 20 20 20 19 19 19 19 19 20
20 20 20 21 23 23 26 26 27 28 28 25 25 21 21 19 18 13 13 12 13 13 13 13 15 17 15 17 16 18 20 20 20 20 19 19 19 19 19 19 19 19 19 19
19 19 19 21 21 19 19 23 22 25 24 24 23 21 20 20 24 16 12 12 13 13 13 14 16 14 15 16 16 17 18 19 19 18 18 18 19 19 19 19 19 19 18 18
18 16 18 20 20 21 17 19 20 21 21 21 21 21 19 21 18 13 12 12 12 13 13 13 13 13 14 14 15 16 17 17 18 17 17 18 18 18 18 19 21 23 18 18
18 18 18 19 20 19 12 17 17 12 15 18 17 17 16 14 13 13 13 13 13 13 13 13 13 13 13 14 14 14 15 16 16 16 17 17 17 17 18 20 19 20 18 17
14 15 15 17 16 11 9 9 8 9 13 15 14 14 13 13 13 13 13 13 13 13 13 13 13 13 13 13 13 14 14 15 14 15 16 16 17 18 18 17 18 16 17 16
17 15 15 15 12 9 8 7 8 10 13 14 13 12 12 12 12 12 13 13 13 13 14 14 14 14 13 12 13 13 13 14 14 14 15 15 15 15 16 16 16 16 16 16
13 14 13 13 11 9 7 6 7 10 12 13 13 12 12 11 11 11 11 12 12 13 13 13 13 14 13 13 13 12 13 14 14 15 15 16 16 15 15 15 15 14 15 16
14 11 10 12 12 9 7 6 7 9 11 13 14 14 14 14 13 13 13 13 13 13 13 13 13 13 12 12 12 12 14 13 13 15 15 15 17 17 16 16 15 15 15 15

GFSCGP_850_temp_249.txt.gz
Temp
28 24 23 25 26 28 29 30 26 27 27 27 25 26 25 27 26 25 25 26 26 26 25 24 24 23 22 22 21 21 20 20 20 20 21 21 20 20 20 21 21 21 20 20
24 24 26 28 29 29 29 28 28 29 29 27 26 27 25 27 27 25 25 26 26 26 25 25 24 23 23 22 21 20 21 20 20 21 21 21 21 21 21 21 21 22 21 20
23 25 29 29 28 28 28 27 28 29 30 29 28 25 26 27 28 26 26 27 27 26 25 25 24 23 23 22 21 20 20 20 21 21 21 21 20 20 20 21 21 21 21 21
24 26 27 28 28 28 26 30 31 27 27 24 29 25 25 26 27 26 26 27 27 27 25 25 24 24 23 22 21 20 20 20 21 20 20 21 21 21 20 21 21 21 21 21
23 25 26 26 28 29 28 30 30 30 26 25 27 26 26 27 27 25 27 27 27 27 25 25 25 24 23 22 21 20 20 20 21 21 20 21 21 21 21 21 21 21 21 21
24 27 26 26 29 29 30 30 29 29 25 24 26 27 27 28 28 27 27 27 27 28 26 25 25 24 23 22 22 21 20 20 20 20 20 21 22 21 21 21 21 21 21 21
23 24 26 27 26 28 28 26 25 25 24 23 27 26 29 29 30 28 27 27 27 27 27 25 24 24 23 23 22 21 20 21 20 20 20 21 22 21 22 22 21 22 22 22
21 21 24 27 25 25 26 26 25 23 24 25 27 26 29 31 32 29 28 28 27 27 27 25 25 24 24 23 22 22 21 21 21 20 20 21 22 22 21 22 23 22 23 22
18 20 24 27 27 27 26 26 27 25 26 27 28 30 31 30 30 30 29 28 27 27 28 26 25 25 24 24 22 22 22 22 21 21 20 21 22 22 21 21 22 23 22 22
20 18 22 25 27 27 26 28 26 26 24 24 25 27 28 29 30 30 30 29 28 28 28 27 25 25 25 24 23 22 23 22 22 21 21 21 22 22 21 21 22 22 22 22
19 18 19 22 22 23 25 26 27 27 25 25 24 25 28 29 31 30 30 29 29 28 28 27 26 25 25 25 24 23 23 23 22 22 21 21 21 22 21 21 22 22 22 21
20 18 17 20 24 25 25 25 26 26 23 23 24 27 32 29 27 32 30 29 28 27 27 27 27 25 25 25 24 24 23 23 23 23 22 22 22 22 22 21 22 22 22 21
19 16 15 18 21 24 25 23 24 26 24 25 23 25 29 27 27 26 24 29 28 28 28 28 27 26 25 25 24 24 24 23 23 23 22 22 22 22 22 22 22 22 22 22
19 17 16 16 18 20 21 23 24 25 23 25 26 27 27 27 26 27 22 21 21 21 29 28 28 26 25 25 25 25 24 24 24 24 23 23 23 22 22 22 22 22 21 22
17 15 18 19 20 21 21 22 24 24 24 26 26 26 28 25 24 22 19 19 18 17 20 24 26 26 25 25 25 25 25 24 24 24 23 23 23 23 22 22 22 22 21 21
16 15 16 17 19 21 21 22 24 25 25 26 27 25 23 22 18 16 18 18 17 16 16 17 21 25 24 24 25 25 25 25 24 24 24 24 23 23 23 22 22 21 22 21
14 14 14 14 17 19 19 21 20 22 25 25 24 24 22 20 18 17 19 20 17 16 15 17 18 18 22 21 23 24 25 25 25 24 24 24 24 23 22 22 21 21 21 21
14 13 13 14 15 15 19 18 19 18 19 16 22 20 20 17 16 16 17 18 16 14 15 15 18 19 18 19 22 24 24 24 24 24 24 23 23 23 22 22 21 21 21 20
14 14 14 14 14 17 20 17 17 16 17 15 18 18 16 15 15 13 14 14 14 14 14 15 17 20 21 22 21 24 24 23 23 22 22 22 22 22 22 21 21 21 20 20
12 14 14 14 14 15 17 17 17 19 17 13 14 19 16 17 15 14 13 13 14 14 14 15 17 18 18 19 22 23 22 21 22 22 21 21 20 20 20 20 20 20 20 20
12 12 13 15 15 16 13 15 17 17 13 12 13 14 16 14 14 13 13 13 13 14 14 14 14 16 17 18 18 20 20 20 22 22 21 21 20 20 19 20 20 19 19 20
10 11 11 13 15 14 10 14 17 12 12 13 13 13 13 13 13 13 14 14 13 13 13 13 14 14 14 14 15 16 16 16 18 19 21 20 20 18 17 18 19 18 18 18
10 9 10 10 10 12 10 9 10 10 13 13 13 12 14 13 13 14 14 14 14 14 13 13 14 13 13 14 14 14 14 15 15 16 17 20 20 18 17 17 17 17 16 17
10 9 9 9 10 11 10 10 10 11 14 14 13 13 13 14 13 13 14 14 14 13 13 13 14 14 13 13 14 14 14 15 15 15 16 17 17 18 16 17 16 16 16 16
11 8 9 8 8 8 11 9 9 13 14 14 14 13 12 12 13 13 13 13 13 14 14 14 14 13 13 13 14 14 14 15 15 15 15 15 16 16 16 17 17 16 15 15
9 9 9 8 8 8 9 9 9 13 13 14 14 12 13 13 12 13 13 13 13 13 13 13 13 13 14 14 14 15 15 15 15 16 16 16 16 16 16 16 16 16 16 16

GFSCGP_850_temp_255.txt.gz
Temp
23 20 20 22 22 24 24 23 23 25 27 23 22 22 22 23 23 22 22 22 23 23 23 23 22 22 21 21 21 20 20 19 19 19 19 19 19 18 18 19 19 19 19 19
20 20 22 22 24 24 25 23 22 24 26 23 24 22 24 23 23 22 22 22 23 23 23 22 22 22 22 22 21 20 20 20 20 20 20 19 19 19 19 19 19 19 19 19
20 22 23 23 23 23 22 23 24 23 24 24 26 24 22 23 24 23 23 23 23 24 23 22 22 22 22 22 21 21 21 21 20 20 20 19 19 19 19 19 19 20 20 20
21 22 23 22 23 23 21 25 24 24 22 22 25 21 22 22 22 23 23 23 23 23 23 23 22 22 22 22 22 21 21 21 21 20 19 19 19 20 20 20 20 20 20 20
21 23 23 23 23 24 21 23 23 23 22 22 23 21 21 22 22 22 23 23 23 24 23 23 23 23 23 22 22 22 21 21 21 20 20 20 20 20 21 20 20 20 20 20
21 22 23 22 23 23 23 22 21 21 19 18 22 22 24 21 22 23 24 24 24 24 23 23 24 23 23 23 22 22 22 21 21 21 20 20 20 20 20 21 20 20 20 20
17 20 20 22 20 19 19 17 16 19 18 19 20 21 25 24 25 25 24 24 24 24 23 22 22 23 23 22 22 22 22 21 21 21 20 20 20 20 20 21 20 20 20 20
15 17 19 20 21 20 18 18 16 19 17 19 22 20 22 24 27 27 26 25 25 24 24 23 23 23 23 23 23 22 22 22 21 20 20 20 20 20 20 20 21 20 20 21
15 16 19 20 20 21 20 19 19 18 17 17 19 21 23 24 25 26 26 25 25 25 24 23 23 23 24 23 23 23 22 22 21 21 20 20 20 20 20 20 20 21 21 21
17 14 16 18 19 20 20 19 17 14 19 18 18 20 21 23 25 24 24 26 25 25 24 23 23 23 23 24 24 23 23 23 22 22 21 20 20 20 21 20 20 21 21 21
17 14 15 17 17 16 16 16 16 15 14 16 16 18 20 23 24 25 24 26 25 25 25 24 23 23 24 24 24 24 23 23 22 21 21 21 21 20 20 20 20 20 22 22
15 11 13 16 16 15 16 18 15 14 15 14 14 17 24 21 20 22 25 26 25 25 25 24 23 22 22 23 23 24 24 23 23 22 21 21 21 20 20 20 20 21 21 22
15 11 11 12 13 14 17 17 17 14 12 14 15 16 23 21 19 21 19 19 26 26 26 25 23 22 22 22 23 23 24 24 23 22 22 21 21 21 20 20 20 20 21 21
15 10 11 11 13 14 14 16 17 16 13 15 15 18 19 21 20 18 20 19 20 23 25 25 24 23 22 22 22 22 24 24 23 23 22 22 21 21 21 21 21 21 21 21
12 12 12 11 12 13 14 15 16 15 16 14 17 16 16 18 19 18 20 20 20 18 21 23 23 23 22 22 22 21 21 22 23 23 22 22 22 22 22 21 21 21 21 20
9 10 12 11 13 14 14 15 16 17 18 15 15 15 16 16 17 16 16 17 17 16 17 19 21 21 22 21 21 22 22 21 21 23 23 22 22 22 22 22 22 21 21 21
10 9 9 10 12 12 12 14 16 17 15 15 14 15 16 15 13 13 14 15 16 17 18 19 19 21 21 21 21 20 21 21 21 22 23 22 22 22 22 22 22 22 22 22
8 8 7 9 12 11 13 15 16 17 15 14 15 15 15 13 13 13 13 14 14 14 15 17 19 20 20 19 21 21 20 20 21 21 21 22 22 22 22 22 22 22 22 22
8 6 9 9 8 11 14 15 14 13 15 15 14 14 14 14 13 13 13 13 13 14 14 15 15 16 18 18 18 19 20 20 20 20 20 20 21 21 21 21 21 20 20 20
7 6 9 7 10 10 12 13 12 11 12 14 15 14 13 13 13 13 13 13 13 13 14 14 14 15 16 17 17 17 18 19 19 19 19 19 20 20 20 20 20 20 19 18
7 7 8 8 9 10 11 10 11 11 12 13 15 15 13 13 13 13 13 13 13 14 14 14 15 15 15 15 16 16 16 16 17 17 18 19 20 21 19 19 19 20 18 16
8 8 7 7 8 9 10 11 12 10 10 12 14 14 14 12 13 13 13 13 13 13 13 13 14 15 16 15 18 15 15 17 16 18 17 20 20 19 19 19 17 18 19 16
8 7 8 7 7 9 10 10 10 9 9 10 11 14 14 15 12 13 13 13 13 13 13 13 13 14 14 14 14 15 15 15 15 15 16 17 16 17 18 18 18 19 17 16
9 8 7 7 8 8 11 11 11 10 9 10 14 13 13 15 14 12 12 12 13 13 13 13 13 13 13 13 14 14 15 15 15 15 15 15 15 15 16 17 17 16 16 16
9 8 7 7 7 9 10 10 10 9 9 10 13 13 14 15 14 11 12 12 12 13 13 13 13 13 13 13 14 14 14 14 15 16 16 16 15 15 15 15 16 15 15 15
8 8 7 7 8 7 9 10 9 9 10 11 13 13 12 13 12 11 11 11 12 12 12 13 13 13 13 13 13 14 14 14 15 15 15 15 15 15 15 15 15 15 16 15

GFSCGP_850_temp_258.txt.gz
Temp
22 19 20 22 22 23 23 22 22 23 24 21 21 22 21 21 21 21 21 21 21 21 22 22 22 21 21 20 20 20 20 20 19 18 18 18 18 18 18 18 19 19 19 19
19 20 22 22 23 23 24 23 22 22 24 21 22 21 21 22 22 21 21 21 21 21 22 22 21 21 21 21 20 20 20 20 20 20 19 19 19 18 18 18 19 19 19 19
20 22 22 23 22 22 21 22 22 22 22 22 24 22 21 21 22 22 22 22 22 22 22 22 22 22 22 21 21 21 20 20 20 20 19 19 18 18 18 18 19 19 19 19
21 22 22 21 23 21 22 23 23 22 21 21 23 20 20 20 21 22 22 22 22 22 22 23 23 22 22 22 21 21 21 20 20 20 19 20 19 19 19 19 19 19 19 19
21 22 22 21 21 22 21 22 22 23 21 21 22 20 20 20 20 21 22 22 22 23 23 23 23 23 23 22 22 21 21 20 20 20 20 20 20 20 19 19 19 20 20 20
19 20 20 21 21 21 21 21 19 17 17 18 20 20 20 18 21 22 22 23 22 22 23 23 24 24 23 23 22 22 21 21 21 20 20 20 20 20 20 20 20 20 20 20
16 18 19 20 19 18 16 15 15 18 19 18 19 19 19 23 23 23 23 23 23 23 22 23 23 23 23 23 22 22 21 21 21 21 20 20 20 20 20 20 20 20 20 20
15 17 17 18 20 19 17 16 14 19 16 18 17 19 21 23 26 26 26 26 24 23 23 23 23 24 24 24 23 22 22 21 21 21 20 20 20 20 20 20 20 20 20 20
14 16 17 19 19 19 18 16 17 16 15 15 16 19 21 23 23 25 26 26 25 24 23 23 23 24 24 24 24 23 23 22 21 21 21 20 20 20 20 20 20 20 20 20
16 14 16 17 18 18 18 17 16 12 17 17 15 18 19 22 21 22 23 23 25 25 24 23 23 23 24 24 24 24 23 23 22 22 21 21 20 20 20 20 20 21 20 20
15 13 15 16 17 15 14 15 14 12 12 14 13 15 17 21 19 20 21 21 23 25 24 23 22 23 24 24 24 24 24 23 22 22 22 21 20 21 20 20 20 20 21 21
13 9 12 15 15 13 15 16 12 12 13 12 12 14 20 18 20 20 19 20 21 24 24 23 22 22 22 23 22 24 24 24 23 23 22 21 21 20 20 20 20 21 21 21
14 10 10 11 12 14 15 16 15 11 9 12 13 15 20 19 17 16 16 18 20 22 24 24 23 22 22 23 23 23 23 24 24 23 23 22 21 21 20 20 20 20 21 21
14 8 11 10 12 13 13 14 14 13 11 12 12 15 16 17 15 16 16 16 17 18 24 24 23 23 23 23 23 23 24 23 24 24 23 23 22 21 21 21 20 20 20 21
11 11 9 10 11 12 12 13 13 13 12 12 15 16 16 14 14 14 13 15 17 16 19 23 23 22 21 21 21 22 21 22 23 22 22 23 22 22 21 21 21 20 20 20
8 10 10 11 11 11 13 13 14 14 14 14 14 13 14 14 14 14 13 14 15 16 16 18 21 21 21 21 20 20 21 21 20 21 23 23 22 22 22 21 21 21 21 20
9 8 8 9 11 11 11 12 13 14 15 14 13 14 14 14 13 13 13 13 13 14 15 16 18 20 21 21 21 20 20 19 20 21 21 21 22 22 22 22 21 21 21 21
7 7 6 8 9 10 12 13 14 14 15 13 13 13 13 14 13 13 14 13 13 14 14 16 16 18 20 20 21 21 21 19 19 19 20 20 20 21 21 21 22 21 21 20
7 5 8 9 7 9 13 14 12 11 13 14 13 13 14 13 13 14 14 14 13 14 14 15 15 16 18 18 19 18 19 20 19 18 18 19 20 20 20 20 20 20 20 20
5 5 8 5 9 9 11 11 11 11 11 14 13 13 13 13 15 12 13 13 14 14 14 14 15 15 16 16 18 17 19 19 17 17 18 18 19 18 18 19 19 20 20 20
7 5 7 6 7 8 10 11 10 11 11 9 10 12 13 12 12 11 10 13 13 14 14 14 14 15 15 16 16 16 16 16 16 17 17 16 17 17 17 16 16 16 17 17
7 7 6 5 6 8 10 11 11 10 11 9 9 9 11 12 11 10 12 12 13 14 13 13 14 14 14 15 15 16 16 15 16 15 15 16 14 16 16 15 17 16 17 19
7 7 8 7 7 9 9 9 10 10 9 10 9 8 9 11 11 10 11 11 12 13 13 12 13 13 14 14 15 14 14 15 15 16 17 16 15 18 18 17 15 18 18 18
7 7 7 8 9 8 9 10 10 9 9 10 9 9 10 11 11 11 11 11 12 13 13 13 13 13 13 14 14 14 14 15 15 16 16 17 16 16 17 16 16 17 18 18
7 8 8 8 8 8 10 9 9 9 9 9 10 10 12 12 10 11 11 9 10 11 12 12 12 12 12 13 13 13 14 14 15 15 15 15 16 16 16 16 16 17 17 16
7 6 6 6 9 7 8 9 8 8 8 8 9 12 11 10 10 11 11 10 10 10 11 12 12 12 12 12 13 13 14 14 14 15 15 15 14 14 14 15 15 16 16 15

GFSCGP_850_temp_261.txt.gz
Temp
22 26 25 24 25 26 25 25 25 26 26 24 25 25 26 23 22 23 22 21 21 21 21 20 21 20 20 20 20 19 19 19 18 18 18 17 18 18 18 18 19 19 19 19
25 25 24 24 25 25 26 24 25 26 26 25 26 25 27 24 23 23 23 22 22 21 21 20 21 21 21 21 20 20 20 19 19 18 19 18 18 18 18 18 19 19 19 19
25 24 23 25 25 25 25 25 25 25 26 26 26 26 25 24 24 23 23 23 22 22 22 21 21 21 21 21 21 20 20 20 19 19 19 19 18 18 18 18 19 19 19 19
24 23 24 24 24 25 24 25 25 25 26 26 27 27 26 26 25 24 23 23 23 22 22 22 21 22 22 22 22 21 21 20 20 20 19 19 19 19 19 19 19 19 19 19
22 22 23 23 22 23 24 23 24 25 25 25 27 26 28 24 25 25 25 24 24 23 23 22 21 23 23 23 22 22 21 21 20 20 20 20 19 19 19 19 19 19 19 19
21 20 22 22 22 22 22 24 23 22 25 25 27 26 28 28 28 28 26 25 24 24 23 23 22 22 23 23 23 22 22 21 21 20 20 20 20 20 20 19 19 19 20 20
21 21 21 20 23 23 23 24 24 24 24 25 24 25 27 28 27 27 28 27 26 24 24 23 22 21 23 23 23 23 22 22 21 20 20 20 20 20 20 20 20 20 20 21
21 21 21 21 21 21 21 22 22 22 24 25 23 25 27 27 26 25 25 25 25 26 25 24 23 22 23 23 24 24 23 22 22 21 21 21 20 20 20 20 20 20 20 21
20 20 20 20 20 21 21 21 20 22 19 21 24 25 26 27 26 24 23 23 23 22 24 25 23 22 22 24 24 24 24 23 22 22 21 21 21 20 20 20 21 20 20 20
18 19 19 20 20 20 21 20 21 20 21 21 23 22 25 24 22 23 22 22 21 21 22 22 24 23 21 22 24 24 24 24 23 22 21 21 21 21 20 20 20 21 21 21
18 18 19 19 19 19 20 20 19 20 20 21 21 23 23 21 22 21 22 21 20 20 20 21 24 23 22 21 21 24 24 24 23 23 22 21 21 21 20 20 20 20 21 21
16 18 18 19 19 17 18 19 19 20 19 20 19 21 25 22 22 21 21 20 19 19 20 19 23 23 22 21 21 22 24 24 24 24 23 22 22 21 20 20 20 21 21 21
17 17 17 19 18 18 18 19 18 18 17 19 19 22 23 22 22 21 20 19 17 18 19 19 21 23 22 21 20 21 24 25 25 24 24 23 22 22 21 20 20 20 20 20
16 17 18 18 19 18 17 17 18 18 18 19 20 20 21 21 20 20 20 18 16 17 17 17 19 22 22 21 21 20 21 22 24 24 24 23 23 22 22 21 21 20 20 20
17 16 16 17 17 17 17 17 17 17 18 18 20 20 21 20 19 18 17 17 16 15 16 15 16 18 20 21 21 20 21 22 20 20 22 24 24 23 22 22 21 21 20 20
14 15 13 15 16 16 16 17 17 17 17 17 18 18 20 19 17 17 17 16 15 15 14 15 16 16 19 20 21 21 21 22 21 20 21 22 22 23 23 22 22 21 21 20
15 15 14 15 14 15 14 16 17 18 19 18 18 19 20 18 17 17 16 15 15 15 14 15 15 16 17 20 21 21 21 20 20 21 20 20 21 21 22 22 21 21 21 21
13 13 13 15 14 14 17 17 17 17 18 19 18 18 18 17 16 15 16 15 14 14 14 15 14 16 17 18 19 20 20 20 20 20 20 19 19 20 20 20 21 21 20 20
12 13 14 14 14 16 16 17 16 15 16 16 14 15 15 16 15 17 15 13 13 13 14 14 14 14 16 16 18 18 19 19 19 19 19 19 19 19 19 19 19 20 20 20
11 11 14 13 13 14 15 14 13 13 14 14 13 13 12 12 14 16 13 14 14 14 13 14 15 14 15 16 17 17 17 18 18 18 18 18 18 18 18 18 18 17 18 18
13 13 13 14 13 14 15 13 12 13 14 12 12 11 11 10 11 12 11 11 11 12 13 13 14 15 14 15 16 16 16 17 17 16 17 18 17 17 18 18 18 17 17 18
13 13 13 12 12 12 12 13 13 12 10 11 11 11 11 10 9 10 11 10 10 10 13 13 13 13 14 15 15 15 15 16 16 16 17 16 16 16 15 16 16 15 15 16
11 13 13 12 13 14 11 11 10 9 9 9 9 10 9 9 9 10 10 9 10 13 12 14 12 14 14 14 14 15 15 15 15 15 16 15 15 15 16 15 14 15 15 16
11 9 11 11 13 13 11 10 9 9 8 8 9 9 9 9 9 10 10 10 11 12 9 10 12 13 14 14 14 14 14 15 14 14 15 15 14 16 15 15 15 14 15 16
12 10 11 11 12 11 10 10 8 7 8 8 9 9 9 10 10 9 9 10 10 9 9 7 10 9 10 11 12 13 14 14 15 15 14 14 14 14 14 14 15 15 16 15
9 12 12 12 12 10 10 9 8 7 7 8 8 9 10 9 9 9 9 9 10 9 8 9 10 10 11 12 13 13 13 13 14 14 14 14 14 14 13 14 15 15 15 15

GFSCGP_850_temp_264.txt.gz
Temp
28 29 29 29 28 28 29 29 29 29 28 27 30 29 30 27 27 27 26 25 25 24 24 23 22 21 21 20 19 18 18 17 17 17 17 18 18 18 18 18 18 17 18 18
28 29 28 28 28 29 29 29 29 30 29 29 31 31 31 30 27 27 27 26 26 25 24 23 22 22 21 20 19 18 18 17 19 17 18 18 18 19 19 18 18 18 18 18
29 29 27 28 28 28 29 29 29 28 29 31 30 31 31 30 28 27 27 27 26 26 25 24 23 22 22 21 20 19 20 18 19 18 17 17 17 18 18 19 18 18 18 19
28 26 27 27 28 28 29 28 28 28 29 29 31 30 31 31 30 29 28 27 27 26 25 25 24 23 22 22 21 20 21 20 19 19 18 18 19 19 19 19 19 19 18 18
25 26 27 27 27 27 28 27 27 28 28 30 30 30 32 31 31 31 30 29 28 27 26 26 25 24 23 23 22 20 20 21 20 19 19 18 19 20 20 20 19 18 18 18
26 24 26 26 26 26 26 27 28 28 29 28 30 31 31 32 32 32 31 30 29 28 27 26 25 25 24 23 23 22 20 22 21 20 20 18 18 20 20 20 20 19 19 19
25 25 25 25 26 27 27 28 28 28 28 29 32 31 31 32 31 29 29 28 28 28 28 27 26 25 24 23 23 22 20 22 22 21 20 20 18 18 19 19 19 20 20 20
26 24 25 25 25 25 26 27 28 26 29 30 28 28 30 31 28 27 27 27 26 26 26 28 27 26 25 24 23 23 21 21 22 22 21 21 20 19 19 19 20 20 21 21
25 25 24 24 24 25 25 25 26 26 28 26 29 30 30 30 29 27 27 26 25 25 25 25 25 27 26 24 23 23 22 20 23 22 22 21 21 20 19 20 19 20 20 21
23 23 24 24 24 24 24 25 25 26 24 25 29 27 28 29 26 27 27 26 25 24 24 25 25 24 26 26 24 23 22 21 20 22 22 22 21 21 20 19 19 19 20 19
24 23 23 23 24 24 25 24 24 26 26 26 27 28 28 26 26 26 26 25 25 23 23 23 24 24 26 26 25 24 23 22 21 21 22 22 22 21 21 19 19 19 19 19
22 23 23 24 23 22 23 24 24 25 25 25 25 26 29 26 26 25 25 24 24 23 22 22 22 22 25 26 25 24 23 22 21 21 21 23 22 22 20 21 19 19 19 19
22 22 22 23 23 22 22 23 24 24 24 23 24 26 27 26 26 24 23 23 23 22 21 21 21 20 21 25 25 24 23 23 22 20 20 20 20 20 20 20 19 19 19 19
18 22 21 22 23 23 22 22 22 22 22 24 25 25 26 26 25 24 23 22 21 21 20 20 19 18 18 21 23 23 23 23 22 21 20 20 20 21 20 20 20 20 19 19
20 19 21 21 21 22 22 21 22 22 22 22 23 24 24 24 24 22 21 21 21 20 19 19 18 17 16 18 21 22 22 22 22 21 20 20 20 20 21 20 20 20 20 19
20 18 19 19 20 20 20 21 21 21 21 22 22 22 25 23 23 22 20 20 20 20 19 18 18 17 15 16 19 20 21 21 20 21 20 20 20 19 19 20 21 21 21 21
19 19 18 19 20 19 19 21 21 22 22 22 21 23 23 22 21 20 20 19 19 19 18 17 17 16 15 15 16 18 19 19 20 19 20 19 19 19 19 19 19 19 19 20
18 17 18 18 19 17 21 21 21 20 21 21 21 21 18 17 18 18 19 18 18 16 15 14 15 15 14 15 15 16 17 19 20 18 19 18 18 18 19 18 18 19 19 19
17 18 18 17 19 20 20 20 19 19 19 20 18 17 16 16 15 18 19 16 15 15 15 14 13 13 14 15 15 16 17 18 18 18 18 17 18 19 21 20 19 18 18 19
17 16 17 18 16 16 19 19 17 17 16 17 15 15 15 15 16 18 16 14 14 14 14 13 12 13 14 15 15 16 17 17 17 18 18 17 18 18 19 20 20 18 17 18
17 17 17 18 17 18 19 16 16 14 16 14 14 14 14 15 15 14 13 13 14 13 13 12 12 13 15 15 14 16 16 17 17 17 17 17 18 18 18 19 18 17 17 18
16 16 18 17 16 16 16 16 14 15 14 13 13 13 13 13 13 13 13 13 13 12 12 11 12 13 15 16 14 16 16 16 16 17 17 18 17 17 17 17 16 19 17 17
15 16 16 16 17 17 16 15 14 13 12 12 12 12 12 12 13 13 13 12 12 11 10 9 10 11 11 13 14 14 15 15 15 15 16 16 16 16 16 18 16 15 15 15
17 15 15 15 17 16 15 14 13 12 10 9 10 11 10 11 11 11 10 11 11 10 9 8 8 8 10 12 13 14 13 13 14 15 15 15 14 14 15 15 14 15 15 15
17 15 15 16 16 16 15 14 11 9 9 9 9 9 9 10 11 10 9 9 9 9 10 7 7 7 9 12 10 12 12 13 12 13 13 14 13 13 13 14 14 13 13 14
16 16 16 16 16 15 14 12 9 8 7 8 8 8 8 8 8 8 7 7 8 8 9 8 7 8 8 8 10 12 13 13 12 13 13 14 13 13 14 14 13 13 14 15